This demonstration page uses our WeatherBlox Daily Observations layout. Learn more.

36.19886, -115.1175

Hourly Observations for April 2, 2020

Temp ( °F °C ) Dew Point ( °F °C ) Humidity (%) Winds ( mph kmh ) Pressure ( in mb ) Visibility ( mi km ) Precip ( " mm )
12:53 am 00:53 Clear 68 20 27 -2.8 21 21 WSW 13 20 29.6 1002 10 16.0934 0 0
1:53 am 01:53 Clear 64 17.8 29 -1.7 27 27 NW 10 17 29.64 1004 10 16.0934 0 0
2:53 am 02:53 Clear 66 18.9 25 -3.9 21 21 WNW 21 33 29.65 1004 10 16.0934 0 0
3:53 am 03:53 Clear 64 17.8 23 -5 21 21 WNW 16 26 29.68 1005 10 16.0934 0 0
4:53 am 04:53 Clear 63 17.2 21 -6.1 20 20 NW 22 35 29.72 1006 10 16.0934 0 0
5:53 am 05:53 Clear 60 15.6 22 -5.6 23 23 NW 22 35 29.75 1008 10 16.0934 0 0
6:53 am 06:53 Sunny 59 15 22 -5.6 24 24 NW 22 35 29.81 1009 10 16.0934 0 0
7:53 am 07:53 Sunny 59 15 22 -5.6 24 24 NW 25 41 29.84 1010 10 16.0934 0 0
8:53 am 08:53 Sunny 60 15.6 20 -6.7 21 21 NW 25 41 29.87 1012 10 16.0934 0 0
9:53 am 09:53 Sunny 62 16.7 19 -7.2 19 19 NW 24 39 29.91 1013 10 16.0934 0 0
10:53 am 10:53 Sunny 64 17.8 17 -8.3 16 16 NW 21 33 29.92 1013 10 16.0934 0 0
11:53 am 11:53 Partly Cloudy 67 19.4 17 -8.3 15 15 NW 24 39 29.91 1013 10 16.0934 0 0
12:53 pm 12:53 Cloudy 66 18.9 16 -8.9 14 14 NW 17 28 29.92 1013 10 16.0934 0 0
1:53 pm 13:53 Sunny 68 20 20 -6.7 16 16 NNW 9 15 29.91 1013 10 16.0934 0 0
3:53 pm 15:53 Sunny 68 20 19 -7.2 15 15 VRB 3 6 29.88 1012 10 16.0934 0 0
6:53 pm 18:53 Sunny 68 20 18 -7.8 15 15 Calm 29.88 1012 10 16.0934 0 0
7:53 pm 19:53 Clear 64 17.8 17 -8.3 16 16 E 6 9 29.89 1012 10 16.0934 0 0
8:53 pm 20:53 Clear 62 16.7 17 -8.3 17 17 ENE 6 9 29.92 1013 10 16.0934 0 0
9:53 pm 21:53 Clear 63 17.2 18 -7.8 17 17 Calm 29.93 1014 10 16.0934 0 0
10:53 pm 22:53 Clear 58 14.4 21 -6.1 24 24 WNW 5 7 29.94 1014 10 16.0934 0 0
11:53 pm 23:53 Clear 56 13.3 24 -4.4 29 29 WNW 5 7 29.94 1014 10 16.0934 0 0

Powered by AerisWeather